�N����,����,�~����,�C��,���x,�C��,����,���ϕ���,�ő�u�ԕ���,�ő厞����,���˗�,�I�_���x,�n�����x,�ő啗���N��,DTYPE
"21/12/02","00:10",0.0,5.0,66.3,1011.2,270.8,2.8,4.9,239.0,0.00,-0.7,10.4,"00:09:52",1
"21/12/02","00:20",0.0,5.1,67.2,1011.2,280.3,2.5,4.8,269.4,0.00,-0.4,10.5,"00:10:08",1
"21/12/02","00:30",0.0,5.1,67.9,1011.2,284.6,2.6,5.4,329.3,0.00,-0.3,10.3,"00:20:02",1
"21/12/02","00:40",0.0,5.1,68.2,1011.4,292.4,2.3,4.2,310.2,0.00,-0.2,10.5,"00:30:56",1
"21/12/02","00:50",0.0,5.0,68.6,1010.9,289.8,2.6,4.3,259.7,0.00,-0.2,10.4,"00:46:40",1
"21/12/02","01:00",0.0,4.8,69.0,1010.9,285.2,2.5,4.2,285.8,0.00,-0.4,10.3,"00:52:00",1
"21/12/02","01:10",0.0,4.6,70.0,1011.4,293.1,2.3,3.6,295.9,0.00,-0.4,10.3,"01:06:40",1
"21/12/02","01:20",0.0,4.6,70.7,1011.2,293.6,2.3,4.4,335.1,0.00,-0.2,10.4,"01:16:08",1
"21/12/02","01:30",0.0,4.5,71.5,1011.6,292.2,2.0,3.5,329.8,0.00,-0.2,10.3,"01:27:28",1
"21/12/02","01:40",0.0,4.8,71.8,1011.6,276.8,2.5,3.9,327.4,0.00,0.2,10.2,"01:35:12",1
"21/12/02","01:50",0.0,4.9,71.7,1011.4,274.9,2.7,6.6,240.4,0.00,0.3,10.2,"01:47:12",1
"21/12/02","02:00",0.0,4.7,71.9,1011.6,269.8,3.0,5.0,308.2,0.00,0.1,10.2,"01:58:40",1
"21/12/02","02:10",0.0,4.6,72.2,1011.4,276.1,2.3,4.9,301.6,0.00,0.1,10.1,"02:00:08",1
"21/12/02","02:20",0.0,4.5,72.5,1011.9,268.5,2.6,5.1,241.8,0.00,0.0,10.1,"02:10:56",1
"21/12/02","02:30",0.0,4.4,73.0,1011.9,268.1,2.1,4.1,256.5,0.00,0.0,9.9,"02:28:08",1
"21/12/02","02:40",0.0,4.5,73.3,1011.6,271.4,2.2,4.3,297.3,0.00,0.2,10.1,"02:30:40",1
"21/12/02","02:50",0.0,4.5,73.5,1011.9,280.3,1.7,2.1,268.9,0.00,0.2,10.0,"02:40:08",1
"21/12/02","03:00",0.0,4.4,73.6,1011.9,294.0,2.1,3.4,259.9,0.00,0.1,9.9,"02:50:40",1
"21/12/02","03:10",0.0,4.0,74.0,1011.6,298.7,2.2,3.3,251.5,0.00,-0.2,10.1,"03:00:16",1
"21/12/02","03:20",0.0,3.7,74.6,1011.4,282.2,2.0,2.7,250.3,0.00,-0.3,9.9,"03:18:00",1
"21/12/02","03:30",0.0,3.6,75.3,1011.4,272.2,2.1,3.5,299.9,0.00,-0.3,10.1,"03:28:40",1
"21/12/02","03:40",0.0,3.6,75.8,1011.6,275.8,2.1,3.7,233.6,0.00,-0.2,10.2,"03:30:32",1
"21/12/02","03:50",0.0,3.2,76.1,1011.6,312.7,0.8,2.1,318.0,0.00,-0.6,9.9,"03:40:40",1
"21/12/02","04:00",0.0,2.9,77.1,1011.4,301.4,1.5,2.6,317.6,0.00,-0.7,10.1,"03:57:04",1
"21/12/02","04:10",0.0,2.9,78.0,1011.4,11.0,0.5,1.8,318.7,0.00,-0.5,9.8,"04:00:16",1
"21/12/02","04:20",0.0,2.6,79.0,1011.2,327.2,0.8,2.0,338.0,0.00,-0.6,9.9,"04:18:00",1
"21/12/02","04:30",0.0,2.4,79.9,1011.2,323.5,2.1,2.9,322.8,0.00,-0.7,9.9,"04:22:24",1
"21/12/02","04:40",0.0,2.0,80.9,1011.4,317.7,2.2,3.1,321.3,0.00,-0.9,9.9,"04:33:28",1
"21/12/02","04:50",0.0,2.1,82.0,1011.4,307.0,1.1,1.9,327.3,0.00,-0.6,10.0,"04:40:08",1
"21/12/02","05:00",0.0,2.0,82.7,1011.4,308.2,1.8,3.4,320.2,0.00,-0.6,9.9,"04:50:56",1
"21/12/02","05:10",0.0,1.7,83.8,1011.4,321.7,2.1,3.3,336.7,0.00,-0.7,9.7,"05:09:04",1
"21/12/02","05:20",0.0,1.5,84.8,1011.2,312.6,2.2,3.9,332.4,0.00,-0.7,9.8,"05:11:52",1
"21/12/02","05:30",0.0,1.3,85.7,1011.2,319.4,1.5,2.2,335.5,0.00,-0.8,9.8,"05:29:04",1
"21/12/02","05:40",0.0,1.0,86.4,1011.4,309.2,1.6,2.4,320.8,0.00,-1.0,9.6,"05:35:20",1
"21/12/02","05:50",0.0,0.9,87.2,1011.4,325.9,1.6,2.2,318.3,0.00,-0.9,9.7,"05:42:08",1
"21/12/02","06:00",0.0,0.7,87.8,1011.6,306.1,1.5,2.2,331.4,0.00,-1.0,9.6,"05:57:12",1
"21/12/02","06:10",0.0,0.7,88.4,1011.6,304.6,1.6,2.2,319.8,0.00,-1.0,9.6,"06:01:52",1
"21/12/02","06:20",0.0,0.8,89.1,1012.1,311.5,2.0,3.1,335.6,0.00,-0.7,9.7,"06:16:00",1
"21/12/02","06:30",0.0,0.8,89.6,1011.9,316.1,1.8,2.7,312.7,0.00,-0.7,9.5,"06:29:44",1
"21/12/02","06:40",0.0,1.0,90.1,1011.9,309.5,2.1,3.1,331.9,0.00,-0.4,9.4,"06:35:20",1
"21/12/02","06:50",0.0,1.2,90.6,1012.3,301.6,1.8,3.2,325.2,0.00,-0.1,9.3,"06:43:28",1
"21/12/02","07:00",0.0,1.5,90.9,1012.3,288.1,1.3,2.9,307.1,0.00,0.2,9.3,"06:51:04",1
"21/12/02","07:10",0.0,1.8,91.2,1012.6,313.0,2.0,3.5,326.1,0.00,0.6,9.3,"07:09:12",1
"21/12/02","07:20",0.0,1.9,91.4,1012.8,307.5,2.1,4.1,332.4,0.00,0.7,9.5,"07:13:44",1
"21/12/02","07:30",0.0,1.9,91.5,1012.8,306.5,2.2,4.0,325.7,0.00,0.7,9.2,"07:25:36",1
"21/12/02","07:40",0.0,1.9,91.7,1013.0,307.7,2.0,3.1,334.8,0.00,0.7,9.5,"07:33:28",1
"21/12/02","07:50",0.0,2.0,92.0,1013.0,291.2,1.2,2.2,302.0,0.00,0.9,9.6,"07:41:12",1
"21/12/02","08:00",0.0,2.7,92.3,1013.3,307.4,1.6,2.5,323.0,0.04,1.6,9.1,"07:54:56",1
"21/12/02","08:10",0.0,3.3,91.6,1013.8,305.2,2.2,5.0,328.8,0.03,2.1,9.2,"08:09:28",1
"21/12/02","08:20",0.0,3.5,91.1,1013.5,303.1,2.2,5.2,335.6,0.03,2.2,9.2,"08:10:32",1
"21/12/02","08:30",0.0,4.0,90.1,1014.0,325.7,2.3,3.7,332.9,0.06,2.6,9.3,"08:23:02",1
"21/12/02","08:40",0.0,4.8,88.6,1014.5,293.1,1.8,2.8,322.1,0.08,3.1,9.2,"08:31:20",1
"21/12/02","08:50",0.0,5.2,86.5,1014.2,261.9,2.2,3.2,253.3,0.10,3.2,9.2,"08:45:50",1
"21/12/02","09:00",0.0,5.6,83.7,1014.7,240.1,1.7,3.2,244.2,0.14,3.1,9.2,"08:51:50",1
"21/12/02","09:10",0.0,6.0,80.8,1014.9,98.6,0.7,1.6,122.7,0.17,3.0,9.2,"09:07:16",1
"21/12/02","09:20",0.0,6.2,78.3,1015.4,61.1,1.1,3.9,115.1,0.19,2.7,9.1,"09:14:26",1
"21/12/02","09:30",0.0,6.9,76.2,1015.6,262.7,0.8,2.2,245.0,0.21,3.0,9.2,"09:26:30",1
"21/12/02","09:40",0.0,7.5,74.2,1015.9,271.6,0.6,2.0,331.9,0.24,3.2,9.3,"09:35:38",1
"21/12/02","09:50",0.0,7.9,72.1,1015.9,196.4,0.7,2.5,176.8,0.29,3.2,9.2,"09:49:26",1
"21/12/02","10:00",0.0,8.0,70.3,1015.9,203.6,1.2,2.9,133.9,0.36,3.0,9.1,"09:54:40",1
"21/12/02","10:10",0.0,7.9,70.2,1015.9,212.1,1.2,3.2,248.6,0.32,2.9,9.2,"10:04:24",1
"21/12/02","10:20",0.0,7.9,69.7,1015.6,250.9,1.1,2.9,237.5,0.31,2.8,9.3,"10:16:18",1
"21/12/02","10:30",0.0,8.5,69.4,1015.4,276.9,1.0,2.4,318.0,0.38,3.3,9.6,"10:28:02",1
"21/12/02","10:40",0.0,9.3,68.2,1015.4,232.9,1.0,2.8,244.2,0.42,3.8,9.4,"10:35:44",1
"21/12/02","10:50",0.0,9.5,67.3,1015.2,247.3,1.2,3.4,291.0,0.38,3.8,9.4,"10:41:46",1
"21/12/02","11:00",0.0,9.5,66.2,1015.2,269.9,2.0,4.0,276.3,0.40,3.6,9.4,"10:57:12",1
"21/12/02","11:10",0.0,9.3,65.7,1014.7,264.1,2.6,5.1,245.9,0.41,3.3,9.6,"11:05:52",1
"21/12/02","11:20",0.0,9.7,66.6,1014.7,258.2,2.1,3.5,248.8,0.44,3.8,9.6,"11:18:02",1
"21/12/02","11:30",0.0,9.8,65.1,1014.5,281.8,2.0,4.2,344.3,0.43,3.6,9.5,"11:24:00",1
"21/12/02","11:40",0.0,9.7,64.3,1014.2,274.9,2.3,4.0,322.9,0.43,3.3,9.9,"11:38:56",1
"21/12/02","11:50",0.0,10.2,64.4,1014.2,259.5,2.2,4.9,238.5,0.49,3.8,9.8,"11:47:44",1
"21/12/02","12:00",0.0,10.0,63.6,1014.0,282.5,2.5,5.2,240.4,0.38,3.5,9.7,"11:50:56",1
"21/12/02","12:10",0.0,10.7,63.2,1014.0,266.6,2.3,4.8,247.9,0.49,4.0,10.0,"12:08:56",1
"21/12/02","12:20",0.0,10.5,61.9,1014.0,316.9,2.3,4.1,349.1,0.31,3.6,10.0,"12:16:40",1
"21/12/02","12:30",0.0,11.2,60.4,1013.3,330.7,1.7,3.5,344.3,0.43,3.9,10.2,"12:23:28",1
"21/12/02","12:40",0.0,11.9,59.5,1012.8,291.8,1.3,3.9,243.7,0.48,4.3,10.3,"12:39:28",1
"21/12/02","12:50",0.0,11.6,57.4,1013.0,314.7,2.2,4.1,347.0,0.38,3.5,10.3,"12:47:28",1
"21/12/02","13:00",0.0,11.3,56.9,1012.6,0.1,1.7,4.0,351.0,0.31,3.1,10.2,"12:51:20",1
"21/12/02","13:10",0.0,12.2,55.3,1012.8,304.3,1.1,2.4,247.5,0.47,3.6,10.2,"13:06:40",1
"21/12/02","13:20",0.0,12.1,54.1,1012.3,298.7,1.5,3.7,258.1,0.36,3.1,10.6,"13:15:52",1
"21/12/02","13:30",0.0,12.8,53.8,1012.3,260.1,1.3,4.2,318.8,0.49,3.7,10.5,"13:20:16",1
"21/12/02","13:40",0.0,12.6,52.0,1012.6,266.0,2.0,4.0,261.6,0.47,3.1,10.5,"13:39:28",1
"21/12/02","13:50",0.0,12.2,53.7,1012.1,260.5,2.2,5.5,240.1,0.35,3.1,10.6,"13:45:28",1
"21/12/02","14:00",0.0,12.7,52.7,1011.9,307.4,2.0,4.3,238.4,0.43,3.3,10.8,"13:50:02",1
"21/12/02","14:10",0.0,12.5,53.2,1011.9,283.5,2.3,4.2,237.4,0.34,3.3,10.9,"14:00:08",1
"21/12/02","14:20",0.0,12.4,52.0,1012.1,342.5,1.3,2.8,248.9,0.22,2.9,11.0,"14:13:04",1
"21/12/02","14:30",0.0,12.2,52.4,1011.9,340.9,1.0,2.0,339.0,0.14,2.8,11.0,"14:26:32",1
"21/12/02","14:40",0.0,11.9,53.3,1011.9,330.5,2.0,4.1,347.9,0.11,2.8,11.0,"14:31:12",1
"21/12/02","14:50",0.0,11.7,54.3,1011.6,292.3,1.5,2.8,299.0,0.10,2.8,11.0,"14:48:32",1
"21/12/02","15:00",0.0,11.8,54.5,1012.1,308.1,1.6,2.7,277.1,0.13,3.0,11.3,"14:50:40",1
"21/12/02","15:10",0.0,12.8,51.6,1011.9,330.0,1.3,2.9,328.0,0.25,3.1,11.1,"15:01:52",1
"21/12/02","15:20",0.0,12.7,50.0,1012.3,269.3,2.1,4.3,244.3,0.20,2.6,11.2,"15:13:04",1
"21/12/02","15:30",0.0,11.8,53.0,1012.6,265.8,2.2,4.5,237.3,0.09,2.6,11.2,"15:23:28",1
"21/12/02","15:40",0.0,11.5,54.4,1012.3,278.8,1.6,3.4,271.9,0.05,2.7,11.3,"15:35:04",1
"21/12/02","15:50",0.0,11.1,55.9,1012.6,254.3,2.1,4.0,239.2,0.03,2.7,11.4,"15:45:20",1
"21/12/02","16:00",0.0,11.2,56.1,1012.8,250.5,2.2,4.2,249.2,0.05,2.8,11.4,"15:56:56",1
"21/12/02","16:10",0.0,11.0,56.6,1012.6,244.5,2.1,3.6,257.6,0.04,2.8,11.4,"16:00:24",1
"21/12/02","16:20",0.0,10.6,58.9,1012.8,227.2,2.0,3.7,238.9,0.02,2.9,11.5,"16:15:04",1
"21/12/02","16:30",0.0,10.4,59.7,1012.6,230.1,2.0,3.2,213.8,0.01,2.9,11.4,"16:22:08",1
"21/12/02","16:40",0.0,10.3,61.0,1012.6,246.7,2.0,3.3,249.4,0.00,3.2,11.6,"16:36:16",1
"21/12/02","16:50",0.0,10.0,61.3,1013.0,267.5,2.2,3.6,257.6,0.00,2.9,11.4,"16:42:08",1
"21/12/02","17:00",0.0,9.8,61.6,1013.0,279.2,1.8,4.8,242.3,0.00,2.8,11.5,"16:52:32",1
"21/12/02","17:10",0.0,9.5,63.3,1012.8,310.6,1.7,2.4,272.3,0.00,2.9,11.4,"17:02:24",1
"21/12/02","17:20",0.0,9.0,66.2,1013.0,339.2,1.6,2.5,349.0,0.00,3.1,11.4,"17:17:20",1
"21/12/02","17:30",0.0,8.3,68.6,1012.6,328.6,1.8,2.6,323.0,0.00,2.9,11.3,"17:28:08",1
"21/12/02","17:40",0.0,7.5,71.2,1013.0,326.5,2.2,2.8,328.8,0.00,2.7,11.4,"17:33:44",1
"21/12/02","17:50",0.0,7.2,72.8,1013.0,313.5,2.1,2.9,318.5,0.00,2.7,11.3,"17:47:04",1
"21/12/02","18:00",0.0,7.1,74.5,1012.8,307.3,2.1,3.2,322.0,0.00,2.9,11.4,"17:50:02",1
"21/12/02","18:10",0.0,6.8,75.9,1013.3,305.1,2.1,3.3,318.0,0.00,2.9,11.2,"18:00:08",1
"21/12/02","18:20",0.0,6.6,77.6,1013.5,294.7,1.8,3.9,328.6,0.00,3.0,11.3,"18:19:12",1
"21/12/02","18:30",0.0,6.5,79.0,1014.0,297.0,2.3,3.7,334.8,0.00,3.2,11.4,"18:20:24",1
"21/12/02","18:40",0.0,6.4,80.2,1013.3,306.6,2.5,3.5,330.6,0.00,3.3,11.1,"18:32:56",1
"21/12/02","18:50",0.0,6.3,81.4,1013.5,314.9,2.8,4.1,321.8,0.00,3.4,11.2,"18:47:12",1
"21/12/02","19:00",0.0,6.1,82.1,1013.8,292.1,2.1,3.7,321.4,0.00,3.3,11.2,"18:53:28",1
"21/12/02","19:10",0.0,5.8,83.0,1013.8,301.2,2.2,4.0,314.9,0.00,3.2,11.2,"19:02:58",1
"21/12/02","19:20",0.0,5.6,83.6,1014.0,292.9,1.8,3.4,326.8,0.00,3.1,11.0,"19:17:52",1
"21/12/02","19:30",0.0,5.3,84.4,1013.8,298.6,2.0,2.9,308.0,0.00,2.9,11.1,"19:28:24",1
"21/12/02","19:40",0.0,5.1,84.9,1014.0,289.4,1.5,3.2,314.5,0.00,2.8,11.1,"19:30:08",1
"21/12/02","19:50",0.0,4.9,85.5,1014.0,288.0,1.7,2.6,296.5,0.00,2.7,10.8,"19:48:56",1
"21/12/02","20:00",0.0,4.7,85.8,1013.5,310.6,1.8,3.7,312.9,0.00,2.6,10.8,"19:50:16",1
"21/12/02","20:10",0.0,4.1,86.4,1013.8,296.4,1.6,2.5,329.0,0.00,2.1,10.8,"20:06:56",1
"21/12/02","20:20",0.0,3.5,86.9,1013.8,297.5,1.1,1.8,319.6,0.00,1.6,10.8,"20:13:52",1
"21/12/02","20:30",0.0,3.5,87.5,1013.8,295.0,1.6,3.1,315.8,0.00,1.7,10.7,"20:24:32",1
"21/12/02","20:40",0.0,3.5,87.9,1014.0,305.4,1.8,3.1,323.7,0.00,1.7,11.0,"20:32:24",1
"21/12/02","20:50",0.0,3.4,88.5,1013.8,309.9,2.0,2.4,315.1,0.00,1.7,10.7,"20:44:24",1
"21/12/02","21:00",0.0,3.2,88.9,1013.5,286.2,1.6,2.6,291.7,0.00,1.6,10.6,"20:55:52",1
"21/12/02","21:10",0.0,3.5,89.5,1013.5,282.1,2.0,2.9,295.8,0.00,2.0,10.6,"21:02:32",1
"21/12/02","21:20",0.0,3.6,89.7,1013.8,280.7,2.0,2.6,284.5,0.00,2.1,10.7,"21:11:44",1
"21/12/02","21:30",0.0,3.6,90.1,1013.5,281.7,1.8,2.6,306.1,0.00,2.2,10.4,"21:24:40",1
"21/12/02","21:40",0.0,3.6,90.6,1013.3,292.3,2.1,3.7,312.4,0.00,2.2,10.4,"21:37:36",1
"21/12/02","21:50",0.0,3.6,90.7,1013.3,290.0,2.0,2.6,266.2,0.00,2.3,10.6,"21:43:44",1
"21/12/02","22:00",0.0,3.3,91.0,1013.5,302.2,2.1,2.7,316.0,0.00,2.0,10.4,"21:55:04",1
"21/12/02","22:10",0.0,3.1,91.4,1013.3,291.9,2.1,2.9,321.2,0.00,1.9,10.5,"22:00:56",1
"21/12/02","22:20",0.0,2.7,91.5,1013.5,292.0,1.3,2.2,323.2,0.00,1.5,10.5,"22:13:04",1
"21/12/02","22:30",0.0,2.2,91.8,1013.0,305.2,2.0,2.7,322.0,0.00,1.0,10.4,"22:29:44",1
"21/12/02","22:40",0.0,2.0,92.1,1013.0,311.3,2.1,3.1,320.9,0.00,0.9,10.3,"22:32:32",1
"21/12/02","22:50",0.0,2.1,92.5,1013.0,307.7,2.1,3.2,317.9,0.00,1.1,10.1,"22:47:52",1
"21/12/02","23:00",0.0,2.3,92.6,1013.3,285.0,1.7,2.8,307.0,0.00,1.3,10.1,"22:52:56",1
"21/12/02","23:10",0.0,2.5,92.9,1013.3,282.2,1.8,2.5,318.2,0.00,1.5,10.1,"23:04:40",1
"21/12/02","23:20",0.0,2.6,93.0,1013.5,297.0,1.8,2.2,318.3,0.00,1.6,10.2,"23:15:52",1
"21/12/02","23:30",0.0,2.8,93.2,1013.3,282.5,1.0,2.0,308.4,0.00,1.9,10.1,"23:20:16",1
"21/12/02","23:40",0.0,3.0,93.2,1013.3,303.6,2.0,2.8,319.9,0.00,2.1,10.0,"23:38:16",1
"21/12/02","23:50",0.0,2.6,93.3,1013.3,301.1,1.8,2.2,308.0,0.00,1.7,9.9,"23:44:40",1
"21/12/02","24:00",0.0,2.3,93.6,1012.8,291.0,1.7,2.4,310.8,0.00,1.4,9.9,"23:53:28",1
